Погода в Алашехире

Турция     38°21′16″N   28°31′02″E
В апреле 2022 года жителям России запретили посещать сайт meteo.paraplan.net по решению Генеральной прокуратуры. Аудитория сайта уменьшилась в 10 раз. Владельцы сайта не видят смысла в поддержке погодного сервера в таких условиях. Сайт будет закрыт в октябре.
темп.,
°C
ветер,
м/с
пор.,
м/с
влажн.,
%
обл.,
%
осадки,
мм/ч
давл.,
гПа
погр.,
м
4 октября, вт
вт400:00+14ссз22490 0.0 101114
03:00+12ссз22610 0.0 101212
06:00+11ссз22640 0.0 101212
09:00+14с23500 0.0 1013284
12:00+19ссв33395 0.0 1014947
15:00+22с4435100 0.0 10131635
18:00+19ссз57370 0.0 1014937
21:00+12сз22680 0.0 101821
5 октября, ср
ср500:00+10ссз22730 0.0 102012
03:00+8ссз22820 0.0 102115
06:00+8с22885 0.0 102116
09:00+12ссв23700 0.0 1022280
12:00+17ссв44450 0.0 10211152
15:00+21с443033 0.0 10191892
18:00+20ссз45270 0.0 1018212
21:00+13ссз44440 0.0 102045
6 октября, чт
чт600:00+10ссз22700 0.0 102226
03:00+9с22780 0.0 102220
06:00+8ссв22820 0.0 102115
09:00+12ссв33640 0.0 1021281
12:00+18св34440 0.0 10191030
15:00+22с45330 0.0 10161786
18:00+21ссз46301 0.0 1015288
21:00+14ссз46572 0.0 101885
7 октября, пт
пт700:00+11ссз338046 0.0 101844
03:00+10ссз239267 0.0 101845
06:00+9ссз33923 0.0 101840
09:00+13ссв336990 0.0 1018286
12:00+17ссв454932 0.0 10171221
15:00+22ссв563466 0.0 10132135
18:00+19ссв574474 0.0 10141081
21:00+15ссв236154 0.0 101659
8 октября, сб
сб800:00+12ссз237576 0.0 101693
03:00+12с237730 0.0 101596
06:00+9ссз228914 0.0 101617
09:00+13с2370100 0.0 1016270
12:00+18с345147 0.0 10151201
15:00+20с353952 0.0 10131813
18:00+19с464167 0.0 1013956
21:00+14с32675 0.0 101520